Location: Mason Neck State Park
(38.6428°N, 77.1981°W)
Time: 10:01:03
(UTC-05:00)

ISS - Visible Passes

Search period start: 19 January 2017 00:00
Search period end: 29 January 2017 00:00
Orbit: 399 x 410 km, 51.6° (Epoch: 20 January)

Date Brightness Start Highest point End Pass type
(mag) Time Alt. Az. Time Alt. Az. Time Alt. Az.
19 Jan -3.0 05:58:59 42° W 05:59:34 48° SW 06:02:43 10° SSE visible
20 Jan -1.0 05:09:16 23° ESE 05:09:16 23° ESE 05:10:40 10° SE visible
21 Jan -1.3 05:52:18 17° SSW 05:52:18 17° SSW 05:53:47 10° S visible
25 Jan -0.8 18:59:30 10° S 18:59:57 12° SSE 18:59:57 12° SSE visible
26 Jan -0.6 19:42:16 10° SW 19:43:05 17° SW 19:43:05 17° SW visible
27 Jan -2.8 18:50:12 10° SSW 18:53:18 41° SE 18:53:25 41° SE visible
28 Jan -1.7 17:58:37 10° S 18:01:09 21° SE 18:03:39 10° E visible
28 Jan -1.3 19:34:21 10° WSW 19:36:20 28° WNW 19:36:20 28° WNW visible
